Total_Precipitation_Accumulation
0.00 0.00 0.00 0.00 0.00 0.00 0.00 0.00 0.01 0.01 0.01 0.01 0.04 0.08 0.13 0.16 0.18 0.26 0.33 0.31 0.28 0.39 0.53 0.75 1.09 1.58 2.11 2.09 1.98 2.10 2.33 2.34 2.38 2.63 2.73 2.82 3.12 3.40 3.61 3.72 3.70 3.66 3.52 3.52
0.00 0.00 0.00 0.00 0.00 0.00 0.00 0.00 0.01 0.03 0.02 0.03 0.07 0.12 0.16 0.21 0.23 0.30 0.38 0.41 0.39 0.43 0.64 0.92 1.27 1.81 2.28 2.46 2.50 2.51 2.71 2.94 3.09 3.28 3.62 3.95 4.26 4.51 4.69 4.74 4.32 4.11 3.99 3.91
0.00 0.00 0.00 0.00 0.00 0.00 0.01 0.01 0.02 0.06 0.05 0.06 0.11 0.23 0.29 0.32 0.34 0.44 0.60 0.68 0.75 0.73 0.95 1.20 1.46 1.88 2.26 2.44 2.58 2.67 2.91 3.32 3.78 4.12 4.51 4.93 5.17 5.26 5.06 4.80 4.68 4.54 4.41 4.29
0.00 0.00 0.00 0.00 0.00 0.01 0.01 0.01 0.01 0.02 0.04 0.08 0.12 0.29 0.52 0.53 0.53 0.63 0.77 0.71 0.73 0.87 1.11 1.36 1.63 1.92 2.23 2.43 2.54 2.82 3.32 3.95 4.49 4.90 5.37 5.87 6.03 5.87 5.57 5.17 4.81 4.57 4.33 4.00
0.00 0.00 0.00 0.00 0.01 0.01 0.01 0.01 0.01 0.01 0.02 0.06 0.10 0.25 0.67 0.78 0.78 0.86 0.99 0.85 0.78 0.75 0.92 1.20 1.45 1.68 1.99 2.16 2.40 2.77 3.35 4.06 4.77 5.53 6.15 6.53 6.48 6.18 5.81 5.18 4.61 4.12 3.75 3.45
0.00 0.00 0.01 0.01 0.01 0.00 0.01 0.01 0.01 0.02 0.02 0.06 0.09 0.25 0.71 1.05 1.16 1.20 1.03 0.88 0.77 0.69 0.71 0.81 0.95 1.16 1.41 1.77 2.14 2.55 3.14 3.86 4.54 5.20 5.70 5.80 5.73 5.59 5.14 4.49 3.90 3.52 3.20 2.88
0.02 0.02 0.02 0.01 0.01 0.01 0.01 0.02 0.08 0.12 0.15 0.14 0.12 0.29 0.73 1.09 1.27 1.14 0.93 0.80 0.65 0.57 0.56 0.59 0.67 0.89 1.18 1.45 1.79 2.23 2.67 3.24 3.70 4.08 4.48 4.58 4.58 4.45 4.22 3.80 3.40 3.01 2.53 2.19
0.10 0.07 0.03 0.02 0.01 0.02 0.01 0.02 0.12 0.22 0.21 0.24 0.30 0.55 0.98 1.06 1.06 0.92 0.79 0.69 0.58 0.51 0.52 0.58 0.67 0.82 1.07 1.31 1.56 1.77 2.05 2.40 2.57 2.64 2.84 3.02 3.02 3.05 2.99 2.75 2.52 2.26 1.92 1.60
0.18 0.11 0.05 0.02 0.01 0.02 0.02 0.03 0.06 0.10 0.11 0.27 0.56 0.84 1.22 1.09 0.93 0.85 0.81 0.67 0.57 0.53 0.52 0.56 0.63 0.70 0.84 1.00 1.11 1.20 1.33 1.50 1.58 1.66 1.68 1.75 1.82 1.85 1.80 1.71 1.54 1.36 1.19 1.00
0.17 0.14 0.06 0.03 0.02 0.03 0.04 0.05 0.07 0.12 0.25 0.43 0.65 0.99 1.43 1.53 1.24 0.96 0.75 0.58 0.47 0.48 0.49 0.51 0.55 0.60 0.66 0.72 0.80 0.84 0.88 0.99 1.09 1.15 1.16 1.16 1.16 1.12 1.04 0.98 0.95 0.85 0.75 0.68
0.16 0.16 0.09 0.05 0.06 0.07 0.07 0.08 0.11 0.16 0.19 0.41 0.73 1.26 1.51 1.77 1.72 1.25 0.85 0.64 0.53 0.49 0.48 0.52 0.54 0.49 0.48 0.51 0.57 0.63 0.68 0.72 0.77 0.81 0.84 0.85 0.82 0.77 0.73 0.69 0.65 0.61 0.52 0.44
0.19 0.24 0.23 0.15 0.11 0.09 0.08 0.11 0.17 0.35 0.36 0.35 0.70 1.49 1.71 1.94 1.96 1.60 1.21 0.96 0.80 0.63 0.57 0.59 0.56 0.49 0.46 0.49 0.51 0.54 0.56 0.59 0.64 0.60 0.60 0.64 0.60 0.53 0.51 0.48 0.42 0.39 0.37 0.32
0.17 0.30 0.53 0.49 0.36 0.20 0.13 0.13 0.15 0.20 0.31 0.44 0.81 1.61 1.95 1.92 1.91 1.70 1.40 1.20 1.10 0.97 0.85 0.75 0.67 0.60 0.56 0.53 0.50 0.47 0.44 0.45 0.49 0.49 0.46 0.48 0.47 0.45 0.41 0.37 0.32 0.27 0.27 0.28
0.13 0.32 0.70 0.94 0.69 0.40 0.27 0.18 0.15 0.18 0.39 0.52 0.77 1.30 1.73 1.83 1.83 1.77 1.71 1.64 1.50 1.22 0.96 0.81 0.72 0.66 0.62 0.58 0.53 0.48 0.44 0.40 0.39 0.41 0.41 0.39 0.38 0.36 0.35 0.31 0.30 0.28 0.23 0.20
0.22 0.52 0.56 0.47 0.40 0.36 0.29 0.26 0.22 0.21 0.28 0.52 0.84 1.18 1.56 1.73 1.75 1.84 1.96 1.87 1.54 1.22 0.98 0.87 0.82 0.77 0.72 0.67 0.61 0.53 0.46 0.41 0.37 0.40 0.43 0.41 0.36 0.32 0.30 0.28 0.27 0.25 0.22 0.18
0.27 0.47 0.47 0.42 0.32 0.35 0.35 0.35 0.36 0.34 0.40 0.63 0.92 1.39 1.74 1.88 1.90 1.87 1.85 1.83 1.68 1.41 1.19 1.05 0.95 0.86 0.81 0.75 0.71 0.68 0.62 0.57 0.48 0.46 0.49 0.47 0.41 0.35 0.30 0.25 0.21 0.18 0.16 0.13
0.25 0.41 0.63 0.59 0.34 0.47 0.68 0.57 0.48 0.49 0.57 0.74 0.97 1.24 1.44 1.54 1.66 1.76 1.83 1.80 1.74 1.57 1.38 1.23 1.17 1.11 1.04 0.95 0.88 0.81 0.70 0.60 0.51 0.45 0.42 0.41 0.35 0.31 0.27 0.21 0.18 0.16 0.15 0.14
0.18 0.35 0.53 0.53 0.58 0.92 0.77 0.50 0.44 0.51 0.61 0.63 0.75 0.86 1.07 1.22 1.35 1.56 1.72 1.79 1.79 1.65 1.55 1.45 1.33 1.21 1.12 0.99 0.84 0.66 0.53 0.46 0.40 0.37 0.34 0.29 0.25 0.23 0.20 0.16 0.16 0.16 0.16 0.16
0.09 0.24 0.45 0.56 0.78 0.90 0.82 0.48 0.40 0.60 0.78 0.60 0.61 0.64 0.69 0.76 0.92 1.30 1.42 1.46 1.54 1.53 1.46 1.36 1.26 1.17 1.04 0.85 0.65 0.49 0.41 0.37 0.33 0.31 0.29 0.24 0.19 0.18 0.18 0.17 0.15 0.16 0.19 0.19
0.09 0.19 0.42 0.60 0.88 1.06 0.99 0.43 0.24 0.46 0.98 0.76 0.65 0.65 0.66 0.78 0.90 0.93 0.96 0.96 1.02 1.12 1.15 1.13 1.03 0.92 0.80 0.62 0.47 0.41 0.37 0.34 0.30 0.25 0.22 0.19 0.17 0.18 0.17 0.17 0.16 0.16 0.18 0.19
0.28 0.33 0.52 0.68 0.89 0.97 0.55 0.29 0.35 0.83 1.06 0.80 0.64 0.68 0.81 0.94 0.82 0.60 0.57 0.70 0.79 0.83 0.87 0.86 0.81 0.75 0.63 0.47 0.42 0.43 0.39 0.34 0.26 0.19 0.18 0.18 0.17 0.16 0.15 0.17 0.19 0.19 0.17 0.18
0.45 0.57 0.70 0.75 0.93 1.00 0.43 0.35 0.60 0.71 0.54 0.47 0.46 0.50 0.52 0.49 0.42 0.37 0.38 0.48 0.56 0.65 0.70 0.68 0.64 0.59 0.52 0.45 0.44 0.44 0.40 0.29 0.23 0.21 0.22 0.21 0.18 0.12 0.12 0.19 0.22 0.19 0.19 0.20
0.39 0.51 0.60 0.71 0.86 0.68 0.35 0.33 0.32 0.30 0.35 0.34 0.38 0.40 0.30 0.28 0.31 0.31 0.33 0.40 0.48 0.50 0.50 0.50 0.46 0.43 0.44 0.43 0.45 0.43 0.33 0.23 0.21 0.23 0.25 0.22 0.16 0.14 0.14 0.17 0.20 0.18 0.18 0.17
0.39 0.27 0.35 0.48 0.54 0.40 0.30 0.25 0.24 0.26 0.29 0.28 0.32 0.33 0.30 0.22 0.18 0.22 0.31 0.40 0.44 0.42 0.37 0.39 0.39 0.39 0.41 0.41 0.41 0.38 0.28 0.24 0.26 0.29 0.25 0.21 0.18 0.17 0.15 0.13 0.12 0.12 0.12 0.12
0.40 0.24 0.32 0.45 0.48 0.38 0.36 0.29 0.25 0.27 0.28 0.26 0.28 0.33 0.28 0.19 0.16 0.19 0.27 0.32 0.35 0.37 0.36 0.40 0.46 0.44 0.37 0.33 0.32 0.27 0.25 0.26 0.31 0.30 0.24 0.21 0.18 0.14 0.14 0.10 0.07 0.07 0.07 0.04
0.30 0.31 0.33 0.41 0.38 0.38 0.40 0.27 0.22 0.27 0.34 0.37 0.35 0.29 0.23 0.19 0.17 0.18 0.23 0.25 0.29 0.33 0.37 0.44 0.44 0.37 0.27 0.24 0.24 0.19 0.17 0.20 0.25 0.25 0.20 0.15 0.11 0.11 0.09 0.09 0.08 0.03 0.01 0.01